Regional Weather Roundup
Issued by NWS

Home | Current Version | Previous Version | Graphics & Text | Print | Product List | Glossary On
Versions: 1 2 3 4 5 6 7 8 9 10 11 12 13 14 15 16 17 18 19 20 21 22 23 24 25 26 27 28 29 30 31 32 33 34 35 36 37 38 39 40 41 42 43 44 45 46 47 48 49 50
000
ASUS43 KIND 181809
RWRIN

WEATHER ROUNDUP FOR INDIANA
NATIONAL WEATHER SERVICE INDIANAPOLIS IN
100 PM EST SUN FEB 18 2018

NOTE: "FAIR" INDICATES FEW OR NO CLOUDS BELOW 12,000 FEET WITH NO
SIGNIFICANT WEATHER AND/OR OBSTRUCTIONS TO VISIBILITY.

* - STATION DOES NOT REPORT WEATHER SUCH AS PRECIPITATION OR FOG.

+ - STATION NOT QUALITY CONTROLLED BY THE NATIONAL WEATHER SERVICE.
    USE DATA WITH CAUTION...ESPECIALLY DEWPOINT AND RELATIVE
    HUMIDITY OBSERVATIONS.

INZ001>003-010>013-019-020-181900-
NORTHWEST INDIANA

CITY           SKY/WX    TMP DP  RH WIND       PRES   REMARKS
GARY /AIRPORT/ PTSUNNY   32  25  74 S12       30.28F WCI  23
KNOX *+        FAIR      32  27  80 S9        30.30F WCI  24
LA PORTE +     CLOUDY    29  25  86 S12       30.28F WCI  19
MICHIGAN CITY+ FAIR      32  27  80 S7        30.28F WCI  26
MONTICELLO +   FAIR      35  28  76 S7        30.28F WCI  29
6HR MIN TEMP:  25; 6HR MAX TEMP:  34;

RENSSELAER +   CLOUDY    32  28  86 S12       30.28F WCI  23
VALPARAISO     CLOUDY    31  26  82 S9        30.27F WCI  23
6HR MIN TEMP:  12; 6HR MAX TEMP:  31;


$$

LMZ046-743>745-181900-
SOUTHERN LAKE MICHIGAN

STATION/POSITION TIME  TEMP    WIND        PRES    WAVE
                       AIR SEA DIR/SP/G            HT
                 (UTC) (F)     (DEG/KT/KT) (MB)    (FT)
BURNS HARBOR     1740   30     170/  9/ 17 1025.4F
MICHIGAN CITY    1740   28     140/ 15/ 18   N/A

$$

INZ004-005-014>016-021>024-181900-
NORTH CENTRAL INDIANA

CITY           SKY/WX    TMP DP  RH WIND       PRES   REMARKS
GOSHEN         FAIR      30  25  81 S8        30.30F WCI  22
6HR MIN TEMP:  26; 6HR MAX TEMP:  30;

LOGANSPORT +   CLOUDY    32  28  86 S9        30.31F WCI  24
PERU/GRISSOM   PTSUNNY   34  34  99 S12       30.29F WCI  26
6HR MIN TEMP:  27; 6HR MAX TEMP:  34;

ROCHESTER +    FAIR      34  28  80 SE8       30.30F WCI  27
SOUTH BEND     FAIR      29  24  82 S8        30.29F WCI  21
6HR MIN TEMP:  17; 6HR MAX TEMP:  29;

WARSAW +       FAIR      32  27  80 SE8       30.30F WCI  25

$$

INZ006>009-017-018-025>027-181900-
NORTHEAST INDIANA

CITY           SKY/WX    TMP DP  RH WIND       PRES   REMARKS
AUBURN +       PTSUNNY   32  27  80 S8        30.32F WCI  25
FORT WAYNE     FAIR      33  27  78 S9        30.33F WCI  25
6HR MIN TEMP:  27; 6HR MAX TEMP:  32;

HUNTINGTON +   PTSUNNY   32  26  80 S8        30.32S WCI  25
6HR MIN TEMP:  28; 6HR MAX TEMP:  32;

KENDALLVILLE + CLOUDY    31  26  81 S9G16     30.31F WCI  23

$$

INZ028-029-035-036-043>045-051>053-181900-
WEST CENTRAL INDIANA

CITY           SKY/WX    TMP DP  RH WIND       PRES   REMARKS
CRAWFORDSVL +  FAIR      36  32  87 S10       30.28F WCI  28
6HR MIN TEMP:  21; 6HR MAX TEMP:  36;

GREENCASTLE +  FAIR      39  32  75 S8        30.28F WCI  34
LAFAYETTE      FAIR      36  31  82 S10       30.29F WCI  28
6HR MIN TEMP:  23; 6HR MAX TEMP:  36;

TERRE HAUTE    FAIR      42  34  73 VRB6      30.28F
6HR MIN TEMP:  23; 6HR MAX TEMP:  43;


$$

INZ030>032-037>040-046>048-054>057-064-065-181900-
CENTRAL INDIANA

CITY           SKY/WX    TMP DP  RH WIND       PRES   REMARKS
COLUMBUS       MOSUNNY   41  30  65 SE9       30.31F
FISHERS *+       N/A     36  34  93 S7        30.30F WCI  30
FRANKFORT +    FAIR      39  33  79 S7        30.29F WCI  34
6HR MIN TEMP:  29; 6HR MAX TEMP:  39;

GREENWOOD *+   FAIR     N/A N/A N/A SE9       30.29F
INDIANAPOLIS   PTSUNNY   39  30  70 SE12      30.29F WCI  32
6HR MIN TEMP:  29; 6HR MAX TEMP:  39;

-EAGLE CREEK   FAIR      39  29  67 SE8       30.28F WCI  33
6HR MIN TEMP:  29; 6HR MAX TEMP:  39;

KOKOMO +       CLOUDY    34  30  85 S13       30.30F WCI  25
6HR MIN TEMP:  27; 6HR MAX TEMP:  34;

MARION +       PTSUNNY   33  29  84 S10G16    30.32S WCI  25
MT COMFORT *+  FAIR      37  34  87 S8        30.29F WCI  31
SHELBYVILLE    FAIR      40  32  73 SE10      30.28F WCI  33
6HR MIN TEMP:  31; 6HR MAX TEMP:  40;

ZIONSVILLE +   FAIR      36  31  82 SE9       30.29F WCI  29
6HR MIN TEMP:  27; 6HR MAX TEMP:  36;


$$

INZ033-034-041-042-049-050-058-059-181900-
EAST CENTRAL INDIANA

CITY           SKY/WX    TMP DP  RH WIND       PRES   REMARKS
MUNCIE         FAIR      37  29  72 S13       30.30F WCI  29
6HR MIN TEMP:  29; 6HR MAX TEMP:  37;

RICHMOND +     FAIR      36  32  87 S5        30.33F WCI  32

$$

INZ060-061-067>069-081>083-085>088-181900-
SOUTHWEST INDIANA

CITY           SKY/WX    TMP DP  RH WIND       PRES   REMARKS
EVANSVILLE     FAIR      47  36  65 SE10G20   30.27F
6HR MIN TEMP:  27; 6HR MAX TEMP:  47;

HUNTINGBURG +  FAIR      48  34  58 SE13      30.27F
6HR MIN TEMP:  25; 6HR MAX TEMP:  48;

WASHINGTON +   FAIR      46  32  59 SE12      30.27F
6HR MIN TEMP:  29; 6HR MAX TEMP:  46;


$$

INZ062-063-066-070>080-084-089>092-181900-
SOUTH CENTRAL AND SOUTHEAST INDIANA

CITY           SKY/WX    TMP DP  RH WIND       PRES   REMARKS
BATESVILLE +   SUNNY     39  34  81 MISG      30.30F
BEDFORD +      FAIR      45  34  65 SE7       30.29F
BLOOMINGTON    FAIR      43  34  70 SE9       30.27F
6HR MIN TEMP:  23; 6HR MAX TEMP:  44;

FRENCH LICK *+ FAIR      45  28  53 SE5       30.27F
MADISON *+     FAIR      43  32  65 E7        30.33F
NORTH VERNON + FAIR      41  32  70 SE7       30.32F
SEYMOUR +      FAIR      45  32  61 SE7       30.31F

$$




USA.gov is the U.S. government's official web portal to all federal, state and local government web resources and services.